Theta_e
308 311 310 309 308 306 305 305 305 304 304 303 303 303 303 303 302 301 301 301 301 301 300 300 299 300 300 299 300 300 300 299 300 300 299 301 301 300 299 299 298 299 299
304 308 310 309 308 307 306 305 305 304 304 304 303 303 303 302 302 302 301 301 301 301 301 300 299 300 300 300 300 300 300 300 300 300 298 295 299 299 299 299 299 298 298
304 304 307 308 308 307 306 305 305 304 304 304 303 303 303 303 302 302 302 302 301 301 301 300 300 299 300 300 300 300 300 300 299 300 299 293 296 296 299 299 299 299 299
305 305 306 307 308 308 307 306 305 305 304 304 304 303 303 303 303 302 302 302 302 301 301 300 300 300 300 300 300 300 300 300 300 299 300 299 298 295 295 299 299 299 299
306 304 306 308 309 309 308 307 306 305 305 304 304 303 303 303 303 303 303 303 302 302 301 300 300 300 299 300 300 300 300 300 300 299 299 299 299 299 297 294 298 299 298
307 307 309 309 309 309 308 308 306 306 305 305 305 304 304 303 303 303 302 302 302 302 301 301 300 300 300 299 300 300 300 300 300 299 299 299 298 298 297 294 295 297 298
307 306 307 308 309 309 309 308 307 306 306 305 305 305 304 304 304 303 303 302 302 302 302 302 301 300 300 299 300 300 300 300 300 299 299 299 299 299 298 298 296 296 297
307 307 308 310 310 310 310 309 308 308 307 306 305 305 305 304 304 304 303 303 303 302 302 302 302 301 300 300 300 300 300 300 300 299 299 299 299 299 298 298 297 294 295
309 309 311 312 312 312 312 312 311 310 309 308 306 306 305 305 304 304 304 304 303 303 303 303 302 301 300 300 300 300 300 300 300 299 299 299 299 299 299 298 298 297 294
310 309 311 313 314 314 314 313 313 312 312 310 309 307 306 306 305 305 304 304 304 303 304 303 303 302 301 300 300 300 299 300 299 299 299 299 299 299 299 298 298 297 297
309 309 311 313 314 314 313 313 313 312 311 311 310 309 308 307 305 305 305 305 304 304 304 304 303 302 302 301 301 300 300 300 300 299 299 299 299 299 298 298 298 297 297
309 308 311 311 312 312 311 312 312 311 310 309 309 308 308 307 306 306 305 305 305 304 304 304 304 303 302 302 301 301 300 300 300 299 299 298 299 299 299 298 298 297 296
310 309 309 310 311 313 313 312 311 310 309 309 307 307 307 307 307 306 306 305 305 305 304 304 304 303 302 302 301 301 300 300 299 299 299 298 298 298 298 298 298 297 297
310 309 308 310 311 312 312 311 310 309 308 307 307 306 306 305 305 305 305 305 305 304 304 304 304 303 303 302 301 301 300 300 299 299 298 298 298 298 298 298 298 297 297
310 310 309 309 311 311 311 310 309 308 307 306 305 305 305 304 304 304 304 305 304 304 304 304 303 303 303 302 302 301 300 300 299 299 299 298 298 298 298 298 297 297 297
310 309 309 309 310 311 311 310 308 307 307 306 305 304 304 304 304 303 303 303 303 303 303 303 303 303 302 302 302 301 301 300 299 299 299 298 298 298 300 300 299 297 296
309 309 308 309 310 311 310 309 309 307 306 306 305 304 303 303 303 303 303 303 303 303 303 303 302 302 302 302 302 301 301 300 299 299 299 298 298 298 298 298 300 300 300
309 308 308 310 311 311 310 309 308 307 306 305 305 304 304 303 303 303 303 303 303 303 302 302 302 302 302 302 301 301 302 302 300 299 299 298 298 298 297 297 297 297 299
309 310 311 311 310 310 310 309 308 307 306 306 306 306 304 304 303 303 303 303 302 302 302 302 302 302 302 302 301 301 303 303 302 301 300 299 299 298 298 298 297 297 296
311 311 312 311 310 311 309 309 308 307 307 307 307 307 306 305 304 304 304 304 303 303 302 302 302 302 302 302 302 301 302 302 302 301 300 300 299 299 299 299 298 296 296
312 312 312 311 313 313 309 308 308 308 309 309 308 308 307 306 306 305 304 304 303 303 303 303 303 303 303 302 302 302 302 302 302 301 300 299 300 300 300 299 299 298 297
312 313 312 312 313 313 310 309 308 310 309 309 309 308 308 307 306 305 305 304 303 303 303 302 302 302 302 302 302 302 302 303 302 301 301 300 300 300 300 301 300 299 298
312 313 312 312 313 313 312 309 310 311 310 309 309 309 309 309 307 305 305 304 304 303 302 302 301 301 301 301 301 301 301 302 303 303 302 300 300 300 301 300 301 301 300
311 313 313 311 310 313 312 312 311 311 310 310 309 309 309 309 307 306 305 305 304 303 302 301 300 301 301 301 300 300 301 301 302 303 303 303 301 300 300 301 302 302 301
313 314 312 311 311 312 312 312 312 312 309 310 309 308 308 308 307 306 306 305 304 302 301 301 301 300 300 299 300 300 301 301 300 301 302 302 302 301 301 301 301 301 301
314 312 312 311 312 312 312 312 311 311 310 309 308 308 308 307 306 305 304 302 302 301 300 300 300 300 299 299 299 299 299 299 300 300 300 300 301 301 300 299 298 299 299
Wind_Speed
24 30 28 29 29 27 27 30 30 29 26 25 25 25 26 22 21 20 18 19 19 18 16 15 14 13 12 10 9 9 7 8 6 11 7 2 6 8 5 4 4 6 11
8 24 28 30 32 31 29 29 33 32 31 29 29 27 25 24 24 21 21 22 21 21 20 18 17 16 15 13 12 10 9 7 3 3 3 3 1 6 6 6 5 5 11
11 11 25 33 33 33 34 34 33 33 34 32 29 29 26 27 24 27 26 24 24 24 24 22 20 18 17 17 16 13 13 10 7 5 3 2 2 5 3 2 5 10 11
7 12 22 30 36 38 37 37 36 37 35 34 35 36 35 34 34 31 28 26 25 24 25 25 23 21 20 20 18 16 15 14 12 7 10 10 5 2 4 4 9 15 12
8 10 22 34 40 38 38 38 37 38 40 37 38 38 38 37 33 30 28 30 28 27 27 27 26 26 25 24 21 19 19 19 16 15 12 10 13 14 10 4 7 12 17
7 12 25 32 35 36 37 38 38 40 40 40 40 42 43 41 37 35 34 33 32 31 30 29 29 28 27 27 25 23 22 21 22 19 18 18 10 8 9 6 8 14 15
6 7 10 17 26 31 34 36 38 41 40 42 44 44 45 45 43 41 39 37 34 34 35 31 31 31 30 28 27 26 26 26 25 24 23 21 22 19 19 18 12 7 14
4 7 11 14 17 19 23 30 35 40 41 41 43 46 46 46 46 44 42 39 37 37 34 32 32 32 31 30 29 29 30 29 29 27 26 25 23 21 20 19 14 4 4
6 8 10 12 14 16 20 25 29 36 37 39 40 42 45 45 45 45 44 41 38 38 37 35 34 34 33 33 32 34 34 32 30 29 27 27 26 24 24 22 20 16 3
8 8 14 17 19 21 23 24 27 31 31 32 35 38 40 42 45 44 43 42 40 38 38 38 37 35 35 34 34 34 34 34 34 33 31 30 29 27 26 25 23 22 22
9 9 17 24 22 21 22 22 21 22 24 27 30 34 37 37 39 42 42 41 39 38 39 38 37 37 37 36 35 36 36 35 35 34 32 32 31 29 27 25 25 24 24
8 8 15 18 19 23 23 21 19 19 19 19 22 26 31 34 35 37 39 38 38 36 37 38 38 37 39 38 38 38 38 38 39 38 36 36 32 31 30 28 28 26 25
6 6 7 10 14 15 14 19 19 19 16 16 17 20 23 26 32 35 34 35 34 35 35 37 39 40 39 39 40 40 39 40 41 40 39 37 35 35 34 32 31 30 27
6 5 7 12 16 16 16 16 16 14 13 15 17 19 21 22 24 28 31 32 32 33 35 37 38 40 41 42 42 42 42 42 42 42 41 38 38 37 36 34 33 32 29
7 6 6 9 16 16 11 13 14 12 12 14 16 18 17 18 19 22 25 27 30 31 33 35 38 39 40 41 42 42 42 42 42 42 43 42 41 37 37 35 34 32 32
8 8 7 10 13 12 12 12 12 12 12 15 16 15 15 16 18 20 22 24 26 28 29 33 36 39 42 43 43 41 41 42 42 41 43 43 38 37 34 32 29 29 32
8 8 8 10 13 14 13 14 13 13 14 14 15 16 16 18 18 18 20 23 25 26 29 32 34 38 41 42 41 40 40 41 41 41 41 38 39 38 40 36 32 32 30
9 8 11 12 13 14 14 13 13 14 15 17 19 19 19 20 18 19 22 23 23 26 28 30 33 36 40 40 39 37 38 40 42 42 42 41 39 37 39 40 39 38 36
11 13 14 14 14 16 15 16 17 18 18 23 24 23 22 23 22 24 24 24 24 25 27 29 30 32 35 35 36 34 34 37 39 39 43 43 42 40 35 33 37 38 39
15 14 15 15 15 21 17 18 22 20 25 30 29 26 24 26 27 27 26 25 24 26 25 27 29 30 33 31 31 31 32 32 33 32 35 41 40 40 35 33 36 33 41
15 17 16 19 22 24 18 21 26 27 34 33 30 29 29 30 30 29 27 25 24 24 26 28 29 30 29 31 30 30 32 33 31 29 30 32 36 35 34 36 35 40 38
16 21 21 23 26 26 22 25 28 35 35 35 31 32 33 33 32 29 27 25 23 24 26 25 28 31 30 28 28 29 32 34 32 32 30 30 31 31 34 37 36 35 31
21 25 24 27 26 28 29 26 32 34 36 35 33 33 36 36 33 29 28 26 24 23 26 24 23 28 27 27 25 25 26 31 34 34 33 29 29 30 31 35 36 34 29
20 27 27 25 27 29 29 32 35 36 37 37 36 37 36 37 35 30 28 27 27 26 24 21 18 22 24 27 25 25 24 25 30 31 31 32 30 28 28 30 32 35 31
23 24 26 25 27 27 26 29 34 38 35 35 35 33 33 33 34 30 28 27 28 25 23 23 22 22 22 23 20 21 23 23 28 26 27 25 23 25 23 26 29 31 30
22 22 19 20 25 28 32 34 27 24 28 30 28 31 32 32 27 24 25 22 19 18 19 21 22 26 28 28 27 25 27 28 27 21 22 20 22 23 23 23 26 29 29
Wind_Direction
207 202 203 203 202 203 204 210 210 213 216 217 218 222 225 232 234 239 233 234 237 242 245 241 237 239 252 256 253 278 288 306 309 317 325 344 237 231 270 297 273 316 332
194 200 199 197 200 204 210 213 215 217 220 225 228 228 231 236 244 244 239 236 237 240 245 244 241 234 240 247 248 260 268 287 276 314 335 354 8 229 283 234 245 345 338
193 198 196 199 202 206 212 216 218 221 223 227 227 226 233 237 238 237 239 236 236 237 241 245 246 239 237 240 246 248 249 261 270 252 227 38 248 315 209 241 212 325 336
193 194 195 199 206 213 218 221 224 226 227 227 222 221 222 223 233 237 243 241 239 241 240 242 244 243 241 242 246 247 247 256 253 265 236 243 234 190 321 271 259 298 324
197 195 195 204 213 219 221 226 229 230 232 228 227 227 227 234 242 240 239 236 237 242 244 243 241 240 239 241 243 244 239 243 245 242 243 241 242 240 230 278 286 283 311
221 213 209 212 218 223 226 228 230 234 234 232 231 231 233 235 233 236 236 238 240 242 242 241 242 243 242 239 240 242 244 243 244 245 240 238 226 227 224 240 263 285 307
227 223 212 211 222 226 229 232 234 237 236 233 233 235 237 238 238 239 240 241 240 239 239 237 237 239 241 242 240 241 243 244 244 245 244 245 246 250 254 258 271 267 301
231 233 232 232 234 235 237 239 240 242 241 237 236 238 239 240 239 241 243 246 245 246 246 243 243 244 243 242 240 242 244 245 247 248 249 252 252 250 250 255 265 301 277
247 233 234 234 237 238 242 244 246 248 247 245 242 241 242 241 240 242 245 247 248 246 245 246 247 246 244 241 239 240 242 245 248 250 250 251 255 254 256 257 258 244 275
238 235 229 226 234 240 246 248 249 251 255 252 248 247 247 247 246 247 247 246 248 246 245 246 246 247 245 240 239 241 243 245 247 248 248 249 251 252 255 255 254 247 244
244 232 230 231 238 241 248 245 248 251 252 254 253 249 250 249 249 249 250 249 250 249 244 246 247 247 247 244 239 239 242 243 247 248 250 251 251 253 253 251 251 249 245
272 267 263 265 267 267 271 245 246 244 252 260 258 253 251 251 251 250 250 251 251 251 248 247 245 245 245 247 245 242 241 241 243 247 246 248 249 250 252 252 250 251 254
295 301 294 278 284 283 264 244 246 247 257 258 257 257 253 249 248 250 252 251 251 250 249 243 242 243 243 245 247 248 248 247 249 250 250 249 248 248 250 250 252 252 255
296 300 306 303 307 294 267 245 235 246 254 255 253 253 252 253 253 252 250 251 250 250 248 246 245 244 245 246 247 249 250 250 251 252 253 253 249 248 249 248 250 252 253
302 296 293 298 312 306 278 246 243 247 248 261 259 260 262 256 254 251 248 247 246 249 251 248 247 248 246 248 249 249 250 249 251 252 254 253 251 251 251 249 249 247 249
276 283 285 300 308 301 280 265 247 248 260 264 264 263 255 250 248 247 246 247 248 248 250 248 248 249 249 248 248 249 248 248 247 248 254 256 252 250 245 243 245 248 244
264 274 275 285 295 297 286 264 260 264 259 258 259 255 250 248 246 246 246 247 246 248 248 250 252 254 256 256 252 247 245 247 246 247 249 250 251 251 251 246 244 245 242
252 257 270 283 293 290 279 271 264 259 252 253 253 251 247 248 247 244 244 247 247 249 252 255 256 258 261 263 261 251 244 244 248 248 252 251 250 252 250 251 249 245 243
237 251 271 277 285 285 282 269 261 254 251 251 251 249 246 246 243 242 243 246 246 248 250 257 261 262 268 267 265 258 245 244 246 248 250 251 252 254 249 245 248 250 251
243 258 274 279 281 288 279 265 262 252 253 256 254 255 251 248 246 247 248 248 248 255 260 263 265 267 268 271 270 264 247 248 248 249 248 251 250 253 246 236 239 239 251
264 277 273 272 287 295 278 260 264 258 263 266 266 261 256 251 250 251 252 252 252 254 259 262 270 273 274 277 276 270 251 244 246 246 248 247 248 244 243 236 231 236 250
286 286 280 274 278 287 274 258 262 274 274 272 268 265 262 255 252 250 253 252 254 256 262 267 274 279 282 282 281 275 263 251 244 246 248 245 247 247 246 239 236 239 237
286 287 281 281 280 277 276 261 270 281 280 276 273 270 267 258 249 248 249 250 252 255 263 269 270 279 289 292 290 287 275 265 253 251 248 246 247 246 247 245 236 232 230
279 289 287 278 277 285 276 272 277 280 275 275 277 277 267 262 252 248 248 250 253 256 260 263 264 277 288 291 292 290 288 280 263 255 253 248 243 245 243 242 238 229 225
281 285 279 276 282 288 290 292 289 286 279 276 276 272 269 264 259 253 249 246 256 266 273 279 285 280 279 282 287 289 287 282 277 269 254 241 234 238 243 232 229 224 222
281 282 280 281 284 293 296 295 291 294 291 283 275 268 266 265 254 252 251 253 264 274 279 280 278 284 284 291 291 290 281 282 274 266 248 237 227 229 233 225 222 222 219